www.pogodaiklimat.ru

Погода и климат >> Архив погоды >> Буркина-Фасо >> Бобо-Диуласо


ПОГОДА в Бобо-Диуласо

  • Прогноз погоды в Бобо-Диуласо
  • Монитор погоды в Бобо-Диуласо

АРХИВ ПОГОДЫ в Бобо-Диуласо

Время (UTC), дата Ветер
(напр.,м/с)
 
Видим.   Явления Облачность Т
(С)
Тd
(С)
f
(%)
Тe
(С)
Тes
(С)
Комфортность P
(гПа)
Po
(гПа)
Тmin
(С)
Tmax
(С)
R
(мм)
R24
(мм)
S
(см)
21 11.09 штиль 0 10 км 9/1 480 м
[Sc Ac trans Ci sp]
+26.7 +23.6 83 +36 +36 очень
душно
1010.5 959.7
00 12.09 штиль 0 10 км 9/1 480 м
[Sc Ac trans Ci sp]
+25.5 +22.6 84 +34 +34 очень
душно
1011.0 960.4
03 12.09 СВ 7 10 км 9/3 480 м
[Sc Ac As]
+24.4 +20.8 80 +30 +30 очень
душно
1011.1 960.5
06 12.09 Ю 2 10 км 9/1 480 м
[Sc Ac trans Ci sp]
+21.5 +19.2 87 +26 +26 душно 1011.3 960.4 +21.2
09 12.09 Ю 2 10 км 9/0
[Ac trans Ci sp]
+24.5 +20.1 76 +30 +36 очень
душно
1011.9 961.0
12 12.09 ЮВ 4 10 км 9/1 480 м
[Cu Sc Ac trans Ci sp]
+28.6 +19.8 59 +35 +42 очень
душно
1011.2 960.6
15 12.09 ЮВ 3 10 км 9/3 480 м
[Cu Sc Ac As Ci sp]
+30.2 +20.3 55 +37 +41 очень
душно
1008.3 957.8
18 12.09 ЮВ 2 10 км 9/1 480 м
[Cu Sc Ac trans Ci sp]
+28.3 +22.1 69 +37 +37 очень
душно
1008.8 957.9 +31.5
21 12.09 В 2 10 км зарница 9/1 480 м
[Cb cap Ac trans Ci sp]
+26.1 +22.8 82 +35 +35 очень
душно
1011.0 960.1
00 13.09 С 2 10 км 9/0
[Ac trans Ci sp]
+25.2 +23.5 90 +34 +34 очень
душно
1011.0 960.3
03 13.09 З 2 10 км гроза, ливневой дождь 9/1 480 м
[Cb cap Ac As]
+21.5 +21.4 99 +27 +27 душно 1011.1 960.3
06 13.09 ЮВ 3 10 км гроза, ливневой дождь 10/1 480 м
[Cb cap As op]
+22.5 +22.4 99 +30 +30 очень
душно
1011.0 960.1 +21.4 44
09 13.09 ЮВ 3 10 км {гроза, дождь} 9/3 480 м
[Sc Ac As]
+24.4 +23.0 92 +32 +35 очень
душно
1013.3 962.3
12 13.09 ЮВ 4 10 км {гроза, дождь} 9/8 480 м
[Cu Sc Ac trans]
+26.6 +22.9 80 +35 +37 очень
душно
1013.1 962.2 0.3
15 13.09 ЮВ 4 10 км 9/6 480 м
[Cu Sc Ac trans Ci sp]
+28.4 +22.8 72 +38 +40 очень
душно
1010.6 959.6
18 13.09 Ю 3 10 км 9/5 480 м
[Cu Sc Ac trans Ci sp]
+27.0 +23.6 82 +37 +37 очень
душно
1010.2 959.2 +28.9 0.3
21 13.09 ЮЗ 1 10 км 9/1 480 м
[Sc Ac trans Ci sp]
+24.4 +22.4 89 +32 +32 очень
душно
1012.5 961.4
00 14.09 Ю 2 10 км 8/0
[Ci sp]
+23.4 +22.8 96 +33 +33 очень
душно
1012.3 961.3
03 14.09 Ю 1 10 км 8/0
[Ci sp]
+23.6 +21.5 88 +30 +30 очень
душно
1011.1 960.3
06 14.09 штиль 0 10 км 9/1 480 м
[Sc Ac trans Ci sp]
+23.0 +21.4 91 +31 +31 очень
душно
1011.4 960.4 +22.8 0.3
09 14.09 Ю 4 10 км 8/1 480 м
[Sc Ac trans Ci sp]
+27.5 +23.2 77 +37 +40 очень
душно
1013.2 962.3
12 14.09 Ю 3 10 км 9/6 480 м
[Cu Sc Ac trans Ci sp]
+29.8 +23.4 69 +40 +45 очень
душно
1011.6 960.9
15 14.09 Ю 2 10 км 9/5 480 м
[Cu Sc Ci sp]
+31.3 +23.2 62 +42 +47 опасность
перегрева
1009.2 958.7
18 14.09 Ю 2 10 км 9/3 480 м
[Cb cap Ac trans Ci sp]
+30.2 +23.7 68 +41 +41 опасность
перегрева
1009.1 958.5 +32.3
21 14.09 С 2 10 км 9/1 480 м
[Sc Ac trans Ci sp]
+27.8 +25.3 86 +40 +40 очень
душно
1010.5 960.0
00 15.09 штиль 0 10 км 9/1 480 м
[Sc Ac As Ci sp]
+26.0 +24.6 92 +37 +37 очень
душно
1010.9 960.4
03 15.09 В 15 6000 м гроза, пыльная буря {дождь} 10/4 480 м
[Cb cap Ac As]
+21.6 +20.7 95 +27 +27 душно 1013.5 962.6
06 15.09 Ю 4 10 км гроза без осадков 10/3 480 м
[Cb cap Ac As]
+21.1 +20.8 98 +26 +26 душно 1008.9 958.1 +20.7 31
09 15.09 ЮЗ 2 10 км {гроза} 9/0
[Ac trans Ci sp]
+25.6 +19.4 69 +31 +36 очень
душно
1010.7 960.0
12 15.09 Ю 2 10 км {гроза} 9/0
[Ac trans Ci sp]
+30.7 +19.4 51 +36 +47 очень
душно
1010.3 959.9
15 15.09 С 2 10 км 9/1 480 м
[Sc Ac trans Ci sp]
+30.7 +23.4 65 +41 +48 опасность
перегрева
1008.9 958.2
21 15.09 ЮЗ 1 10 км гроза без осадков 9/1 480 м
[Cb cap Ac trans Ci sp]
+22.6 +22.2 98 +30 +30 очень
душно
1010.5 959.4
00 16.09 ЮВ 1 10 км {гроза, дождь} 9/0
[Ac trans Ci sp]
+23.0 +22.4 96 +31 +31 очень
душно
1009.9 959.3 0.3
03 16.09 штиль 0 10 км 9/0
[Ac trans Ci sp]
+22.7 +22.4 98 +31 +31 очень
душно
1009.5 958.9
06 16.09 Ю 2 10 км 9/0
[Ac As]
+22.6 +22.3 98 +30 +30 очень
душно
1010.6 959.2 +21.2 37
09 16.09 штиль 0 10 км слаб. дождь 9/1 480 м
[Sc Ac As]
+24.0 +23.1 95 +32 +36 очень
душно
1011.9 960.6
12 16.09 ЮВ 2 10 км {дождь} 9/3 480 м
[Cu Sc Ac trans Ci sp]
+28.0 +23.5 77 +38 +47 очень
душно
1011.0 960.1 0.4
15 16.09 Ю 3 10 км 9/1 480 м
[Sc As op Ci sp]
+28.7 +22.5 69 +38 +43 очень
душно
1008.8 958.1
18 16.09 штиль 0 10 км 9/1 480 м
[Sc Ac trans Ci sp]
+29.0 +23.3 71 +39 +39 очень
душно
1008.7 958.0 +30.8 0.4
21 16.09 штиль 0 10 км 8/0
[Ac trans Ci sp]
+26.0 +23.6 87 +35 +35 очень
душно
1010.7 959.7
00 17.09 штиль 0 10 км 8/0
[]
+24.9 +23.6 92 +34 +34 очень
душно
1010.2 959.5
03 17.09 штиль 0 10 км 8/0
[Ci sp]
+24.0 +23.1 95 +32 +32 очень
душно
1009.0 958.4
06 17.09 ЮЗ 2 10 км 9/0
[Ac trans Ci sp]
+24.0 +22.5 91 +31 +31 очень
душно
1009.5 958.9 +23.5
09 17.09 Ю 3 10 км 9/3 480 м
[Cu Sc Ac trans Ci sp]
+26.2 +23.6 86 +36 +39 очень
душно
1011.5 960.7
12 17.09 Ю 4 10 км 9/6 480 м
[Cb cap Ac trans Ci sp]
+28.8 +23.4 73 +39 +43 очень
душно
1009.7 959.1
15 17.09 З 2 10 км гроза, ливневой дождь 9/3 480 м
[Cb cap Ac As]
+23.8 +22.9 95 +32 +35 очень
душно
1008.6 957.6
18 17.09 ЮВ 2 10 км гроза, ливневой дождь 9/4 480 м
[Cb cap Ac As]
+22.2 +21.9 98 +29 +29 очень
душно
1009.9 958.7 +29.6 11
21 17.09 Ю 2 10 км слаб. ливневой дождь, в посл. час гроза 9/3 480 м
[Cb cap Ac As]
+22.3 +21.9 98 +30 +30 очень
душно
1010.1 959.1
00 18.09 штиль 0 10 км {гроза, дождь} 9/1 480 м
[Sc Ac trans Ci sp]
+22.2 +21.9 98 +29 +29 очень
душно
1010.4 959.5 2
06 18.09 Ю 2 10 км 10/10 300 м
[St]
+22.1 +22.0 99 +29 +29 очень
душно
1010.9 959.5 +21.5 12
09 18.09 Ю 3 10 км 9/1 480 м
[Sc Ac trans Ci sp]
+24.0 +22.5 91 +31 +35 очень
душно
1012.7 961.3
12 18.09 ЮЗ 2 10 км 9/3 480 м
[Cu Sc Ac trans Ci sp]
+27.8 +23.5 77 +38 +46 очень
душно
1012.0 961.0
15 18.09 СЗ 2 10 км 9/4 480 м
[Cu Sc Ac trans Ci sp]
+31.0 +22.9 62 +41 +45 опасность
перегрева
1009.7 958.4

 

Местоположение метеостанции Бобо-Диуласо (Буркина-Фасо): широта 11.17 долгота -4.32 высота над уровнем моря 460 м.

В архиве по умолчанию представлена погода в Бобо-Диуласо за последнюю неделю. Архивные данные за месяц целиком и за предыдущие месяцы, начиная с января 2011 года, Вы можете получить, выбрав интересующий диапазон дат из раскрывающегося списка и нажав кнопку "Ввод!".


*Определитесь, кто Вы:
робот инопланетянин человек

Внимание! Время в таблицах - всемирное. Для получения местного времени необходимо прибавить поправку, которая равна 0 ч.

Смотрите также архив погоды в соседних городах и на ближайших метеорологических станциях:

Погода в Сикасо (Мали) (150 км)
Погода в Гауа (Буркина-Фасо) (156 км)
Погода в Боромо (Буркина-Фасо) (165 км)
Погода в Дедугу (Буркина-Фасо) (171 км)
Погода в Кутиале (Мали) (184 км)
Погода в Ва (Гана) (235 км)
Погода в Корого (Кот-д'Ивуар) (241 км)
Погода в Сане (Мали) (247 км)
Погода в Боле (Гана) (312 км)
Погода в Сегу (Мали) (318 км)

Пояснения к столбцам:

Ветер - указаны скорость ветра в м/с - средняя за 10 мин, порывы в срок и между сроками (в фигурных скобках) и направление, откуда дует ветер: С - северный, СВ - северо-восточный, В - восточный, ЮВ - юго-восточный, Ю - южный, ЮЗ - юго-западный, З - западный, СЗ - северо-западный.
Видимость - горизонтальная дальность видимости в метрах или километрах. При видимости от 1 до 10 км при отсутствии осадков обычно наблюдается дымка, при ухудшении видимости до 1 км и менее - туман. В сухую погоду видимость может ухудшаться дымом, пылью или мглою.
Явления - указаны атмосферные явления, наблюдавшиеся в срок или в последний час перед сроком; фигурными скобками обозначены явления, наблюдавшиеся между сроками (за 1-3 часа до срока); квадратными скобками обозначены град или гололедные отложения с указанием их диаметра в мм.
Облачность - указаны через наклонную черту общая и нижняя облачность в баллах и высота нижней границы облаков в метрах; квадратными скобками обозначены формы облаков: Ci - перистые, Cs - перисто-слоистые, Cc - перисто-кучевые, Ac - высококучевые, As - высокослоистые, Sc - слоисто-кучевые, Ns - слоисто-дождевые, Cu - кучевые, Cb - кучево-дождевые. Подробнее классификацию облаков см. в Атласе облаков (PDF).
T - Температура воздуха - температура, измеренная на высоте 2 м над землей.
Td - Температура точки росы - температура, при понижении до которой содержащийся в воздухе водяной пар достигнет насыщения.
f - Относительная влажность воздуха - влажноcть воздуха, измеренная на высоте 2 м над землей.
Te - Эффективная температура - температура, которую ощущает одетый по сезону человек в тени. Характеристика душности погоды. При расчете учитывается влияние влажности воздуха и скорости ветра на теплоощущения человека.
Tes - Эффективная температура на солнце - температура, которую ощущает человек, с поправкой на солнечный нагрев. Характеристика знойности погоды. Зависит от высоты солнца над горизонтом, облачности и скорости ветра. Ночью, в пасмурную погоду, а также при ветре 12 м/с и более поправка равна нулю.
P - Атмосферное давление - приведенное к уровню моря атмосферное давление.
Po - Атмосферное давление - измеренное на уровне метеостанции атмосферное давление.
Tmin - Минимальная температура - минимум температуры воздуха на высоте 2 м над землей.
Tmax - Максимальная температура - максимум температуры воздуха на высоте 2 м над землей.
R - Количество осадков - Количество выпавших осадков за период времени, мм. При наведении курсора мыши на число - период времени, за который выпало указанное количество осадков.
R24 - Количество осадков - Количество выпавших осадков за 24 часа, мм.
S - Снежный покров - Высота снежного покрова, см. При наведении курсора мыши на число - состояние снежного покрова и степень покрытия местности в баллах.